sat.trackr.live / text

‹ back to catalog

YAMAL 300K

NORAD 38978 · 2012-061B

PAYLOAD ACTIVE UNKNOWN

§ Identity

Operator
Country
CIS
Launch date
2012-11-02
Launch site
TYMSC
Launch vehicle
Mass (kg)
RCS (m²)
17.78

Purposes: comms

External: N2YO · Heavens-Above · Gunter

§ Orbital elements

Epoch: 2026-05-25T02:54:05.158656Z

Period
1,436.13 min
Inclination
0.0129°
Eccentricity
0.0000755
Mean motion
1.00269638 rev/d
Perigee alt
35,784.0 km
Apogee alt
35,790.4 km
Semi-major
42,165.3 km
B*
0.0000e+0
RAAN
275.2835°
Arg perigee
309.1407°
Mean anomaly
244.7493°
Rev number
4,940

§ Raw data

YAMAL 300K1 38978U 12061B   26145.12089304  .00000068  00000+0  00000+0 0  99922 38978   0.0129 275.2835 0000755 309.1407 244.7493  1.00269638 49407

JSON: /api/v1/satellites/38978 · /tle

For live sub-satellite position, see the globe view (requires WebGL).

§ Visibility from observer

Set your observer location to see the next 7 days of passes ≥ 10°. The values pass through the URL so the page stays shareable.

No JS? Fill the form by hand. The geolocation button needs JavaScript.